Torna al catalogo

QIANFAN-98

AttivoComunicazioniPO
NORAD 66040·PAYLOAD·🇨🇳 China

Lanciato Oct 17, 2025 da Taiyuan Satellite Launch Center

Loading…

Prossimi Passaggi (prossime 24 ore)

TLE

AggiornatoSource: Space-Track

Epoca: Sep 14, 2026, 07:59 UTC

1 66040U 25233H   26257.33306357  .00000072  00000-0  93211-4 0  9992
2 66040  89.0039  33.8985 0001527 109.0106 251.1210 13.51028566 45362

Traccia QIANFAN-98 in tempo reale con AllMySat

Download on the App Store